Vorticity
6 6 6 6 6 7 7 8 8 8 8 8 8 8 8 8 8 8 9 9 9 9 9 8 8 7 7 7 7 7 7 8 9 9 9 9 8 9 10 12 13 14 14 14 12 9 7 5 5 5 5 5 4 4 5 5 5 5 6 7 8 8 8 8 8 7 7 7 7
6 6 5 5 6 7 7 8 8 8 9 9 8 8 8 9 9 8 9 9 9 8 8 7 7 7 7 7 7 7 8 9 9 9 9 8 9 10 12 14 14 15 15 13 10 8 7 6 6 6 6 5 4 5 5 5 5 6 7 9 9 8 8 8 7 7 7 7 6
5 5 5 6 6 7 7 8 8 8 8 8 8 8 8 9 9 9 9 9 8 8 7 7 7 7 7 7 8 8 8 9 9 9 8 9 10 12 14 15 14 13 12 10 8 7 7 6 6 5 4 4 4 5 5 6 7 8 9 9 8 8 8 7 7 7 7 7 7
5 5 5 6 6 7 7 8 8 8 8 8 8 8 8 9 9 8 8 7 7 7 7 7 7 7 8 8 8 8 9 9 8 8 9 10 13 14 15 14 12 10 9 7 6 6 5 5 4 4 4 4 5 5 6 7 8 9 9 8 8 8 7 7 7 7 7 7 7
5 5 6 6 6 7 7 7 8 8 8 8 8 8 8 8 8 8 7 7 8 7 7 7 8 8 8 8 8 8 9 8 8 9 10 13 15 15 14 12 9 7 6 5 5 5 4 4 5 5 5 5 5 6 7 8 8 8 8 8 8 7 7 7 7 7 7 7 7
5 5 5 6 6 6 7 7 8 8 7 8 8 8 8 8 8 8 7 8 7 7 7 8 8 8 9 9 9 9 9 8 8 10 12 15 15 14 11 9 7 6 6 5 5 4 4 5 5 5 5 5 6 7 7 8 8 8 8 7 7 7 7 7 7 7 7 7 8
4 5 5 5 6 6 7 7 8 8 8 8 8 8 8 8 7 7 7 7 7 8 8 9 9 9 9 9 9 9 8 8 10 12 14 16 14 11 9 7 7 6 6 5 5 5 5 5 5 5 5 6 7 7 8 8 8 8 8 8 8 8 7 7 7 7 7 7 8
4 4 5 5 6 6 7 7 7 8 8 9 9 8 8 7 7 7 7 7 8 9 9 9 9 9 9 9 9 8 8 9 12 14 15 13 11 9 8 7 7 6 5 5 5 5 5 5 5 6 6 7 7 8 8 8 8 8 8 8 8 7 7 7 7 7 7 8 8
4 5 5 5 6 7 7 7 8 8 8 9 9 8 7 7 7 7 7 8 9 9 10 10 10 10 10 10 9 8 9 12 14 14 13 10 9 8 7 6 5 5 5 5 5 5 5 6 6 7 7 7 8 8 8 8 8 8 8 8 7 7 7 7 7 7 8 8 8
4 5 5 6 7 7 7 8 8 9 9 8 8 8 7 7 7 8 8 9 9 10 10 10 10 10 10 9 8 9 11 14 14 12 10 8 7 6 6 5 5 5 5 5 6 6 6 7 7 7 8 8 9 9 9 9 8 8 8 7 7 6 6 7 7 8 8 8 8
4 5 5 6 7 7 8 8 8 8 9 9 9 8 8 8 8 8 9 9 10 10 11 10 10 10 9 8 9 11 13 14 12 10 8 7 6 5 5 5 5 5 5 5 6 6 7 8 8 8 9 9 9 9 9 8 8 8 7 7 6 6 6 7 8 8 9 8 8
5 5 6 6 6 7 8 8 8 8 9 9 9 9 9 9 9 9 9 10 11 11 11 11 10 10 9 9 11 13 14 13 10 8 7 6 5 5 5 5 5 5 5 6 6 7 8 8 9 9 9 10 9 9 8 8 7 7 7 6 6 7 7 7 8 9 9 8 8
5 5 6 6 7 7 8 8 8 8 9 9 10 9 9 9 10 10 10 11 11 11 11 10 10 9 9 10 13 15 14 11 9 7 7 6 5 5 5 5 5 5 6 6 7 7 8 9 9 10 10 9 9 8 8 7 7 7 6 6 6 7 7 8 8 8 8 8 8
6 6 6 7 7 7 7 7 8 9 9 10 10 10 10 10 11 11 11 11 11 11 11 10 9 9 10 13 14 14 12 9 8 7 6 6 5 5 5 5 5 5 6 6 7 8 9 9 10 10 9 8 8 8 7 7 7 7 6 6 6 7 8 8 8 8 8 8 8
6 7 7 7 7 7 7 8 8 9 10 10 11 11 11 11 11 11 11 11 11 11 10 10 10 11 12 14 14 13 11 9 7 7 6 6 5 5 4 4 5 6 6 7 8 9 9 10 9 9 9 8 7 7 7 7 7 6 6 6 7 7 8 9 9 9 9 8 8
7 7 7 7 7 7 8 8 9 10 11 11 11 11 11 11 11 11 11 11 11 10 10 10 11 12 13 13 12 11 10 8 7 7 6 6 5 4 4 5 6 6 7 8 9 9 9 9 9 9 8 8 7 7 7 6 6 6 6 7 7 8 8 9 9 9 9 8 8
8 8 8 7 7 8 8 9 10 11 11 12 12 11 11 11 11 11 11 10 10 10 10 11 12 12 12 11 10 9 8 7 7 7 6 5 4 4 5 6 6 7 8 8 9 9 9 9 9 8 8 7 7 7 6 6 6 6 7 7 8 8 9 9 9 9 8 8 8
8 8 8 8 8 8 9 10 11 11 12 12 11 11 10 10 10 10 10 10 10 10 10 12 12 12 11 9 8 8 8 7 7 6 6 5 5 5 5 6 7 7 8 9 9 9 9 8 8 8 7 7 7 7 6 6 6 7 7 7 8 9 9 9 9 9 8 8 7
8 9 9 9 9 9 10 11 11 12 12 11 10 9 9 10 10 10 10 10 10 10 11 11 11 11 10 8 7 7 8 8 6 6 5 5 5 5 6 6 7 8 8 9 9 9 8 8 8 7 7 7 6 6 6 7 7 7 7 8 8 9 9 9 9 9 8 7 7
9 9 10 10 10 11 11 11 12 11 11 10 9 9 10 11 10 10 10 10 10 11 11 11 10 9 8 8 8 8 7 6 5 5 5 5 5 6 6 7 7 8 8 9 8 8 8 8 7 7 7 6 6 6 6 7 7 7 8 8 9 9 9 9 9 8 7 7 6
9 10 10 11 11 11 12 12 11 10 9 8 9 10 10 11 10 10 10 10 10 11 11 11 10 9 8 8 8 7 6 5 5 5 5 5 6 6 7 7 7 8 8 8 8 8 8 7 7 7 7 6 6 6 6 7 7 7 8 8 9 9 9 9 8 8 7 6 6
10 10 11 11 12 12 11 11 9 9 8 9 10 10 11 11 11 11 10 10 10 11 11 11 10 9 8 8 7 6 5 5 5 5 5 5 6 6 7 7 7 8 8 8 8 8 7 7 7 7 6 6 6 7 7 7 7 8 8 9 9 9 9 9 8 7 7 6 6
10 11 11 12 12 11 10 9 8 8 8 10 11 11 11 11 11 11 10 10 10 10 11 10 9 8 8 7 6 5 5 5 5 5 5 6 6 6 7 7 8 8 8 8 8 8 7 7 7 7 6 6 6 7 7 7 8 8 8 9 9 9 9 8 8 7 6 6 6
11 12 12 12 11 10 9 8 7 8 9 11 11 12 12 11 11 11 10 9 9 10 10 9 8 8 7 6 6 5 5 5 5 5 6 6 6 6 7 7 8 8 8 8 8 7 7 7 6 6 6 7 7 7 7 8 8 8 9 9 9 9 8 8 7 7 6 6 6
12 12 12 11 11 10 8 8 8 9 10 12 12 12 12 12 11 10 9 8 9 9 9 8 7 7 7 6 6 5 5 5 5 5 5 5 6 7 7 7 8 8 8 8 7 7 7 7 7 6 6 7 7 7 7 8 9 9 9 9 9 8 8 7 7 6 6 6 6
12 12 11 11 10 9 8 8 8 10 11 12 12 12 12 11 10 9 8 8 9 9 8 7 7 7 7 6 5 5 5 6 5 5 5 5 6 7 7 8 8 8 8 7 7 7 7 7 7 7 7 7 7 7 8 8 9 9 10 10 9 8 7 7 6 6 6 6 6
12 11 11 10 9 9 9 8 9 10 12 13 13 12 11 10 9 8 8 9 8 8 8 8 8 7 6 5 5 5 5 5 5 5 5 6 6 7 7 7 8 8 8 7 7 7 7 6 6 7 7 7 7 7 8 8 9 10 10 9 9 8 7 7 6 5 5 6 6
11 11 10 9 10 9 9 8 10 11 12 13 12 11 10 9 8 8 8 8 8 8 8 8 8 7 6 5 5 5 5 5 5 5 6 6 7 7 7 7 7 7 7 7 7 7 7 6 6 7 7 7 7 8 8 9 9 10 10 9 9 8 7 6 6 6 5 5 6
11 10 10 10 9 9 9 10 11 12 12 12 11 10 9 9 8 7 8 8 8 8 8 7 6 6 6 6 6 5 5 5 5 6 6 6 7 7 7 7 7 7 7 7 7 7 7 6 7 7 7 7 8 8 9 9 9 10 9 9 8 8 7 6 6 6 6 6 6
10 10 10 9 9 9 9 10 11 12 12 11 10 9 9 8 7 8 8 8 9 8 7 6 5 6 6 6 5 5 5 5 6 6 6 6 6 7 7 7 7 7 7 7 7 7 7 7 7 7 7 7 8 8 9 9 10 10 9 9 8 7 7 6 6 6 6 6 6
10 9 9 9 9 9 9 10 11 11 11 10 9 9 8 8 8 8 8 8 8 7 6 6 6 6 6 5 5 5 5 5 6 6 6 6 6 6 6 7 7 7 7 7 7 7 7 7 7 7 7 7 8 8 9 9 10 10 9 9 8 7 7 6 6 6 6 6 6
9 9 9 8 9 9 9 10 10 11 10 9 9 9 9 8 8 7 7 7 7 6 6 6 6 6 6 5 5 5 5 6 6 6 6 6 6 6 6 7 7 7 7 7 7 7 7 7 7 7 7 7 8 9 9 10 10 10 9 9 8 7 7 6 6 6 6 6 6
9 8 8 8 9 9 9 10 10 10 9 8 8 9 8 7 7 7 7 7 7 7 6 6 6 6 6 5 5 6 6 6 6 6 6 6 6 6 6 7 7 7 7 7 7 7 7 7 7 7 7 7 8 9 9 10 10 9 9 9 8 7 7 6 6 6 6 6 7
9 9 9 9 9 9 10 10 10 9 8 8 8 8 8 7 7 7 8 8 7 7 6 6 6 6 5 5 5 5 5 6 6 6 6 6 6 6 6 7 7 7 7 7 7 7 7 7 7 7 7 8 8 9 9 9 9 9 9 8 8 7 7 6 6 6 6 6 6
9 9 9 9 10 10 10 10 10 9 8 8 8 8 8 7 7 7 7 7 7 6 6 6 6 6 6 5 5 5 5 5 6 6 6 6 6 6 6 7 7 7 7 7 7 7 7 7 7 7 7 8 8 9 9 9 9 9 9 8 8 7 7 6 6 6 6 6 7
10 10 10 10 10 10 10 10 9 9 8 9 9 8 8 8 8 7 7 7 6 6 6 6 6 5 5 5 5 5 5 5 6 6 6 6 6 6 6 6 7 7 7 7 7 7 7 7 7 7 7 8 8 9 9 9 9 9 9 8 8 7 7 6 6 6 6 7 7
10 10 10 10 11 11 11 10 9 9 9 10 9 8 8 7 7 7 7 7 6 6 6 5 5 5 5 5 5 5 5 6 6 6 6 6 6 6 6 6 7 7 7 7 7 7 7 7 7 7 7 8 8 9 9 9 9 9 9 8 8 7 7 6 6 6 6 7 7
10 11 11 11 11 11 11 10 10 10 10 10 9 8 8 7 7 7 7 6 6 6 5 5 5 5 4 5 5 5 6 6 6 6 6 6 6 6 6 6 7 7 7 7 7 7 7 7 7 7 7 8 8 9 9 9 9 9 9 8 7 7 7 6 6 6 6 7 7
11 11 11 12 12 11 11 10 10 10 9 9 8 8 8 8 7 7 6 6 6 5 5 5 4 4 4 4 5 5 6 6 6 6 6 6 6 6 6 6 6 7 7 7 7 7 7 7 7 7 8 8 8 9 9 9 9 9 9 8 7 7 6 6 6 6 6 7 7
11 11 12 12 12 11 10 10 9 9 9 8 8 8 8 8 7 6 5 5 5 5 5 4 4 4 4 4 5 5 6 6 6 6 6 6 6 6 6 6 6 7 7 7 7 7 7 7 7 7 8 8 8 9 9 9 9 9 8 8 7 7 6 6 6 6 6 6 7
11 12 12 12 12 11 10 8 8 8 8 8 8 8 7 7 6 5 5 4 4 4 4 4 4 4 4 4 4 5 6 6 6 6 6 6 6 6 6 6 6 7 7 7 7 7 7 7 7 7 7 8 8 9 9 9 9 9 8 8 7 7 6 6 6 6 6 6 7
Height
3120 3121 3121 3122 3122 3123 3123 3123 3124 3124 3124 3124 3124 3124 3124 3124 3125 3125 3125 3125 3125 3126 3126 3126 3126 3126 3126 3126 3126 3126 3126 3126 3126 3126 3126 3125 3125 3125 3125 3124 3124 3123 3123 3123 3123 3123 3123 3123 3122 3121 3121 3121 3121 3120 3120 3119 3118 3118 3117 3116 3115 3114 3113 3112 3111 3110 3109 3108 3107
3119 3119 3120 3120 3121 3121 3122 3122 3123 3123 3123 3123 3123 3123 3123 3124 3124 3124 3124 3124 3124 3125 3125 3125 3125 3125 3125 3125 3125 3125 3125 3125 3125 3125 3125 3124 3124 3124 3124 3123 3123 3123 3122 3122 3122 3122 3122 3121 3121 3121 3121 3120 3120 3119 3119 3118 3118 3117 3116 3115 3113 3113 3112 3111 3110 3109 3108 3107 3105
3118 3118 3119 3119 3120 3120 3120 3121 3121 3122 3122 3122 3122 3123 3123 3123 3123 3123 3123 3123 3123 3124 3124 3124 3124 3124 3124 3124 3124 3124 3124 3124 3124 3124 3124 3123 3123 3123 3123 3122 3122 3122 3122 3122 3121 3121 3120 3120 3120 3120 3120 3119 3119 3118 3118 3117 3116 3115 3114 3113 3113 3112 3111 3110 3108 3108 3107 3106 3104
3117 3117 3118 3118 3118 3119 3119 3120 3120 3120 3120 3121 3121 3121 3122 3122 3122 3122 3122 3123 3123 3123 3123 3123 3123 3123 3123 3123 3123 3123 3123 3123 3123 3123 3123 3123 3123 3122 3122 3122 3121 3121 3121 3120 3120 3120 3120 3120 3119 3119 3119 3118 3118 3117 3117 3116 3115 3114 3113 3112 3111 3110 3110 3109 3108 3107 3106 3105 3103
3116 3116 3117 3117 3118 3118 3118 3119 3119 3119 3119 3120 3120 3120 3121 3121 3121 3121 3121 3121 3122 3122 3122 3122 3122 3122 3122 3122 3122 3122 3122 3122 3122 3122 3122 3122 3122 3121 3121 3121 3120 3120 3120 3120 3120 3119 3119 3119 3118 3118 3118 3117 3117 3116 3115 3114 3113 3113 3112 3111 3110 3109 3109 3108 3107 3106 3105 3103 3103
3115 3115 3116 3116 3116 3117 3117 3118 3118 3118 3118 3118 3119 3119 3120 3120 3120 3120 3120 3120 3120 3120 3120 3121 3121 3121 3121 3121 3121 3121 3121 3121 3121 3121 3121 3121 3121 3120 3120 3120 3119 3119 3119 3119 3119 3118 3118 3118 3118 3117 3117 3116 3116 3115 3114 3113 3112 3112 3111 3110 3109 3108 3108 3107 3106 3105 3104 3103 3102
3113 3114 3114 3115 3115 3115 3116 3116 3117 3117 3117 3118 3118 3118 3118 3119 3119 3119 3119 3119 3119 3119 3119 3119 3120 3120 3120 3120 3120 3120 3120 3121 3121 3120 3120 3120 3119 3119 3119 3119 3119 3119 3118 3118 3118 3118 3118 3117 3117 3116 3116 3115 3114 3113 3113 3112 3111 3111 3110 3109 3109 3108 3107 3106 3105 3104 3103 3102 3100
3112 3113 3113 3113 3114 3114 3115 3115 3116 3116 3116 3117 3117 3117 3118 3118 3118 3118 3118 3118 3118 3118 3118 3118 3118 3119 3119 3119 3119 3119 3119 3120 3119 3119 3119 3119 3118 3118 3118 3118 3118 3118 3118 3118 3117 3117 3117 3116 3116 3115 3115 3114 3113 3113 3112 3111 3111 3110 3109 3109 3108 3107 3106 3105 3103 3103 3102 3100 3099
3110 3111 3112 3112 3113 3113 3113 3114 3114 3115 3115 3116 3116 3116 3116 3116 3116 3117 3117 3117 3117 3117 3117 3117 3118 3118 3118 3118 3118 3118 3118 3118 3118 3118 3118 3118 3118 3118 3118 3118 3118 3118 3117 3117 3117 3116 3116 3115 3115 3114 3113 3113 3112 3112 3111 3110 3110 3109 3108 3108 3107 3106 3105 3103 3103 3101 3100 3099 3098
3109 3109 3110 3111 3111 3112 3112 3113 3113 3114 3114 3115 3115 3115 3115 3115 3115 3115 3115 3116 3116 3116 3116 3116 3117 3117 3117 3117 3118 3118 3118 3118 3118 3117 3117 3117 3117 3117 3117 3117 3117 3117 3116 3116 3116 3115 3115 3114 3114 3113 3113 3112 3112 3111 3110 3110 3109 3108 3108 3107 3106 3104 3103 3103 3101 3100 3099 3098 3097
3107 3108 3109 3109 3110 3110 3111 3112 3112 3113 3113 3113 3113 3114 3114 3114 3114 3114 3114 3114 3115 3115 3115 3115 3116 3116 3116 3116 3117 3117 3117 3117 3116 3116 3116 3116 3117 3117 3116 3116 3116 3116 3115 3115 3115 3114 3114 3113 3113 3113 3112 3111 3111 3110 3110 3109 3108 3107 3106 3105 3104 3103 3102 3101 3100 3099 3098 3097 3095
3106 3106 3107 3108 3108 3109 3109 3110 3111 3111 3112 3112 3113 3113 3113 3113 3113 3113 3113 3113 3114 3114 3114 3114 3114 3115 3115 3115 3115 3115 3115 3115 3115 3115 3115 3115 3115 3115 3115 3115 3115 3115 3114 3114 3114 3113 3113 3113 3113 3112 3111 3111 3110 3109 3108 3108 3107 3106 3105 3104 3103 3102 3101 3100 3099 3098 3097 3096 3094
3104 3105 3105 3106 3107 3108 3108 3109 3109 3110 3110 3111 3111 3111 3111 3112 3112 3112 3112 3112 3113 3113 3113 3113 3113 3114 3114 3114 3114 3114 3114 3114 3114 3115 3115 3115 3115 3114 3114 3114 3114 3114 3114 3113 3113 3113 3112 3112 3112 3111 3110 3110 3109 3108 3108 3107 3106 3105 3104 3103 3102 3101 3100 3099 3098 3097 3096 3094 3093
3103 3103 3104 3104 3105 3106 3107 3107 3108 3108 3109 3110 3110 3110 3110 3110 3110 3111 3111 3111 3112 3112 3112 3112 3113 3113 3113 3113 3113 3113 3114 3114 3114 3114 3114 3114 3114 3114 3114 3113 3113 3113 3113 3113 3112 3112 3111 3111 3110 3110 3109 3108 3108 3107 3106 3106 3105 3104 3103 3102 3101 3100 3099 3098 3097 3096 3095 3093 3092
3101 3102 3102 3103 3104 3104 3105 3106 3107 3107 3108 3108 3109 3109 3109 3109 3109 3109 3110 3110 3110 3111 3111 3111 3112 3112 3112 3112 3113 3113 3113 3113 3113 3113 3113 3113 3113 3113 3113 3113 3113 3113 3112 3112 3111 3111 3110 3110 3109 3109 3108 3108 3107 3106 3105 3104 3103 3103 3102 3101 3100 3099 3098 3097 3096 3095 3094 3093 3091
3100 3101 3101 3102 3102 3103 3104 3104 3105 3106 3107 3107 3108 3108 3108 3108 3108 3108 3108 3109 3109 3110 3110 3111 3111 3111 3111 3112 3112 3112 3112 3112 3112 3112 3112 3112 3112 3112 3112 3112 3112 3112 3111 3111 3110 3110 3109 3109 3108 3108 3107 3107 3106 3105 3104 3103 3103 3102 3101 3100 3099 3098 3097 3096 3095 3094 3093 3091 3090
3099 3100 3100 3100 3101 3102 3103 3103 3104 3105 3106 3106 3106 3106 3106 3106 3107 3107 3108 3108 3108 3109 3109 3109 3110 3110 3110 3111 3111 3111 3111 3111 3111 3111 3111 3112 3112 3112 3111 3111 3111 3111 3110 3110 3109 3109 3108 3108 3108 3107 3106 3106 3105 3104 3103 3103 3101 3100 3099 3098 3098 3097 3096 3095 3094 3093 3092 3090 3089
3098 3098 3099 3099 3100 3101 3102 3102 3103 3104 3104 3105 3105 3105 3105 3105 3105 3106 3106 3107 3107 3108 3108 3108 3109 3109 3109 3110 3110 3110 3110 3110 3110 3110 3111 3111 3111 3111 3110 3110 3110 3110 3109 3109 3108 3108 3108 3107 3107 3106 3105 3105 3104 3103 3102 3101 3100 3099 3098 3098 3097 3096 3095 3094 3093 3092 3090 3089 3088
3097 3097 3098 3098 3099 3100 3100 3101 3102 3103 3103 3103 3103 3103 3103 3104 3104 3105 3105 3106 3106 3107 3107 3108 3108 3108 3109 3109 3109 3109 3109 3109 3110 3110 3110 3110 3110 3110 3109 3109 3109 3109 3108 3108 3108 3107 3107 3106 3106 3105 3104 3103 3103 3102 3101 3100 3099 3098 3097 3097 3096 3095 3094 3093 3092 3090 3089 3088 3087
3095 3096 3097 3098 3098 3099 3099 3100 3101 3101 3101 3102 3102 3102 3103 3103 3103 3104 3104 3105 3105 3106 3107 3107 3108 3108 3108 3108 3108 3108 3108 3109 3109 3109 3109 3109 3109 3109 3108 3108 3108 3108 3108 3107 3107 3106 3106 3105 3105 3104 3103 3103 3102 3101 3100 3099 3098 3097 3096 3095 3094 3093 3093 3092 3090 3089 3088 3087 3085
3094 3094 3095 3096 3097 3098 3098 3099 3099 3099 3100 3100 3101 3101 3102 3102 3103 3103 3103 3103 3104 3105 3106 3107 3107 3107 3108 3108 3108 3108 3108 3108 3108 3108 3108 3108 3108 3108 3108 3108 3108 3107 3107 3106 3106 3105 3105 3104 3103 3103 3102 3102 3101 3100 3099 3098 3097 3096 3095 3094 3093 3093 3091 3090 3089 3088 3087 3085 3084
3092 3093 3094 3095 3096 3097 3097 3097 3098 3098 3099 3099 3100 3100 3101 3101 3101 3102 3102 3103 3103 3104 3105 3106 3106 3107 3107 3107 3107 3107 3108 3108 3108 3108 3108 3107 3107 3107 3107 3107 3107 3106 3106 3105 3105 3104 3104 3103 3103 3102 3101 3101 3100 3099 3098 3097 3096 3095 3094 3093 3093 3091 3090 3089 3088 3087 3085 3084 3083
3091 3092 3093 3094 3094 3095 3095 3096 3097 3097 3098 3098 3099 3099 3099 3100 3100 3101 3101 3101 3103 3104 3104 3105 3105 3106 3106 3106 3107 3107 3107 3107 3107 3107 3107 3106 3106 3106 3106 3106 3106 3105 3105 3104 3104 3103 3103 3102 3102 3101 3100 3100 3099 3098 3097 3096 3095 3094 3093 3093 3091 3090 3089 3088 3087 3085 3084 3083 3081
3090 3091 3092 3093 3093 3093 3094 3095 3095 3096 3097 3098 3098 3098 3098 3099 3099 3099 3100 3101 3102 3103 3103 3104 3104 3105 3105 3105 3106 3106 3106 3106 3106 3106 3106 3106 3106 3106 3106 3105 3105 3104 3104 3103 3103 3103 3102 3101 3101 3100 3099 3099 3098 3097 3096 3095 3094 3093 3093 3091 3090 3089 3088 3087 3086 3084 3083 3082 3080
3088 3089 3090 3091 3092 3092 3093 3093 3094 3095 3096 3097 3097 3097 3097 3098 3098 3099 3099 3100 3101 3102 3102 3103 3103 3104 3104 3105 3105 3105 3105 3105 3105 3105 3105 3105 3105 3105 3105 3104 3104 3103 3103 3103 3102 3102 3101 3100 3100 3099 3098 3098 3097 3096 3095 3094 3093 3093 3091 3090 3089 3088 3087 3086 3084 3083 3082 3080 3079
3087 3088 3089 3090 3090 3091 3092 3093 3093 3094 3095 3095 3096 3096 3096 3096 3097 3098 3099 3100 3100 3101 3102 3102 3103 3103 3103 3104 3104 3104 3105 3105 3105 3105 3105 3104 3104 3104 3104 3103 3103 3103 3102 3102 3101 3101 3100 3099 3099 3098 3098 3097 3096 3095 3094 3093 3092 3091 3090 3089 3088 3087 3086 3085 3083 3082 3081 3079 3078
3086 3087 3088 3088 3089 3090 3090 3091 3092 3093 3094 3094 3094 3094 3095 3095 3096 3097 3098 3099 3099 3100 3101 3101 3102 3103 3103 3103 3104 3104 3104 3104 3104 3104 3104 3103 3103 3103 3103 3103 3102 3102 3101 3101 3100 3100 3099 3098 3098 3097 3096 3096 3095 3094 3093 3092 3091 3090 3089 3088 3087 3086 3085 3083 3082 3081 3080 3078 3077
3085 3086 3086 3087 3088 3088 3089 3090 3091 3092 3093 3093 3093 3093 3094 3094 3095 3096 3098 3098 3098 3099 3100 3100 3101 3102 3102 3103 3103 3103 3103 3103 3103 3103 3103 3103 3103 3102 3102 3101 3101 3101 3100 3100 3099 3099 3098 3098 3097 3096 3095 3095 3094 3093 3092 3091 3090 3089 3088 3088 3086 3085 3084 3083 3081 3080 3079 3078 3076
3083 3084 3085 3086 3087 3087 3088 3089 3090 3091 3092 3092 3092 3092 3093 3093 3094 3096 3097 3097 3098 3098 3099 3100 3100 3101 3102 3102 3102 3102 3103 3103 3102 3102 3102 3102 3101 3101 3101 3100 3100 3100 3099 3099 3098 3098 3097 3097 3096 3095 3094 3094 3093 3092 3091 3090 3089 3088 3088 3086 3085 3084 3083 3082 3080 3079 3078 3077 3075
3082 3083 3084 3085 3085 3086 3087 3088 3089 3090 3090 3090 3091 3091 3092 3093 3093 3094 3095 3096 3097 3098 3098 3099 3099 3100 3101 3101 3101 3102 3102 3102 3102 3101 3101 3101 3100 3100 3100 3099 3099 3099 3098 3098 3098 3097 3096 3096 3095 3094 3093 3093 3092 3091 3090 3089 3088 3088 3086 3085 3084 3083 3082 3081 3080 3078 3077 3076 3074
3081 3082 3083 3083 3084 3085 3086 3087 3088 3088 3089 3089 3089 3090 3091 3092 3093 3094 3095 3095 3096 3097 3098 3098 3099 3099 3100 3100 3100 3101 3101 3101 3101 3100 3100 3100 3099 3099 3099 3098 3098 3098 3097 3097 3096 3096 3095 3095 3094 3093 3093 3092 3091 3090 3089 3088 3087 3086 3085 3084 3083 3082 3081 3080 3079 3078 3076 3075 3074
3080 3081 3081 3082 3083 3084 3085 3086 3087 3087 3088 3088 3088 3089 3090 3091 3092 3093 3094 3095 3095 3096 3097 3097 3098 3098 3099 3099 3099 3100 3100 3100 3100 3099 3099 3099 3098 3098 3098 3098 3097 3097 3096 3096 3095 3095 3094 3094 3093 3092 3092 3091 3090 3089 3088 3087 3086 3085 3084 3083 3083 3081 3080 3079 3078 3077 3076 3074 3073
3078 3079 3080 3081 3082 3083 3084 3085 3085 3086 3087 3087 3088 3088 3089 3090 3091 3092 3093 3094 3095 3095 3096 3096 3097 3097 3098 3098 3098 3099 3099 3099 3099 3098 3098 3098 3098 3097 3097 3097 3096 3096 3095 3095 3094 3094 3093 3093 3092 3091 3091 3090 3089 3088 3087 3086 3085 3084 3083 3083 3082 3080 3079 3078 3077 3076 3075 3073 3072
3077 3078 3079 3080 3081 3082 3083 3083 3084 3085 3085 3086 3087 3087 3088 3089 3090 3091 3092 3093 3094 3094 3095 3096 3096 3096 3097 3097 3097 3098 3098 3098 3098 3098 3097 3097 3097 3096 3096 3095 3095 3095 3094 3094 3093 3093 3092 3092 3091 3090 3090 3089 3088 3087 3086 3085 3084 3083 3083 3082 3081 3079 3078 3078 3076 3075 3074 3073 3071
3076 3077 3078 3079 3080 3081 3082 3083 3083 3084 3084 3085 3086 3087 3088 3088 3089 3090 3091 3092 3093 3094 3094 3095 3095 3096 3096 3096 3096 3097 3097 3097 3097 3097 3096 3096 3096 3095 3095 3094 3094 3093 3093 3093 3093 3092 3091 3091 3090 3089 3088 3088 3087 3086 3085 3084 3083 3082 3082 3081 3080 3078 3078 3077 3075 3074 3073 3072 3070
3075 3076 3077 3078 3079 3080 3081 3082 3082 3083 3083 3084 3085 3086 3087 3088 3089 3089 3090 3091 3092 3093 3093 3094 3094 3094 3095 3095 3095 3095 3096 3096 3096 3095 3095 3095 3094 3094 3094 3093 3093 3093 3092 3092 3091 3091 3090 3090 3089 3088 3088 3087 3086 3085 3084 3083 3082 3081 3080 3079 3078 3078 3077 3076 3074 3073 3072 3071 3069
3074 3075 3076 3077 3078 3079 3080 3081 3081 3082 3083 3083 3084 3085 3086 3087 3088 3088 3090 3091 3091 3092 3092 3093 3093 3093 3093 3094 3094 3094 3095 3095 3095 3094 3094 3094 3093 3093 3093 3092 3092 3092 3091 3091 3090 3090 3089 3089 3088 3087 3086 3085 3084 3084 3083 3082 3081 3080 3079 3078 3078 3077 3076 3074 3073 3072 3071 3070 3068
3073 3074 3075 3076 3077 3078 3079 3080 3080 3081 3082 3083 3083 3084 3085 3086 3087 3088 3089 3090 3090 3091 3091 3091 3092 3092 3092 3093 3093 3093 3094 3094 3094 3093 3093 3093 3093 3092 3092 3091 3091 3091 3090 3090 3089 3089 3088 3088 3087 3086 3085 3084 3083 3083 3082 3081 3080 3079 3078 3078 3077 3076 3074 3073 3073 3071 3070 3069 3068
3072 3073 3074 3075 3076 3077 3078 3078 3079 3080 3081 3082 3083 3083 3084 3085 3086 3087 3088 3089 3089 3089 3090 3090 3090 3091 3091 3092 3092 3092 3093 3093 3093 3092 3092 3092 3092 3091 3091 3090 3090 3090 3089 3089 3088 3088 3087 3087 3086 3085 3084 3083 3082 3082 3081 3080 3079 3078 3077 3076 3075 3074 3073 3073 3071 3070 3069 3068 3067
3071 3072 3073 3074 3075 3076 3077 3078 3078 3079 3080 3081 3081 3082 3083 3084 3085 3086 3087 3088 3088 3088 3088 3089 3089 3090 3090 3091 3091 3091 3092 3092 3092 3091 3091 3091 3090 3090 3090 3089 3089 3089 3088 3088 3087 3087 3086 3086 3085 3084 3083 3082 3081 3080 3080 3079 3078 3077 3076 3075 3074 3073 3072 3071 3070 3069 3068 3067 3066
3070 3071 3072 3073 3074 3075 3076 3076 3077 3078 3079 3080 3080 3081 3082 3083 3084 3085 3085 3086 3087 3087 3087 3088 3088 3088 3089 3089 3090 3090 3090 3090 3090 3090 3090 3090 3089 3089 3089 3088 3088 3088 3087 3087 3086 3086 3085 3084 3084 3083 3082 3081 3080 3079 3078 3078 3077 3076 3075 3074 3073 3072 3071 3070 3069 3068 3067 3066 3065